Regional Weather Roundup
Issued by NWS

Home | Current Version | Previous Version | Graphics & Text | Print | Product List | Glossary On
Versions: 1 2 3 4 5 6 7 8 9 10 11 12 13 14 15 16 17 18 19 20 21 22 23 24 25 26 27 28 29 30 31 32 33 34 35 36 37 38 39 40 41 42 43 44 45 46 47 48 49 50
705
ASUS43 KBIS 210210
RWRND

NORTH DAKOTA REGIONAL WEATHER ROUNDUP
NATIONAL WEATHER SERVICE BISMARCK ND
800 PM CST FRI JAN 20 2017

NOTE: "FAIR" INDICATES FEW OR NO CLOUDS BELOW 12,000 FEET WITH NO
SIGNIFICANT WEATHER AND/OR OBSTRUCTIONS TO VISIBILITY.


NDZ001>003-009>011-017-210300-
NORTHWEST NORTH DAKOTA

CITY           SKY/WX    TMP DP  RH WIND       PRES   REMARKS
WILLISTON      FAIR      27  24  89 CALM      29.34F
MINOT          CLOUDY    29  27  92 S7        29.34F
MINOT AFB      FRZ DRZL  25  25 100 S5        29.34S FOG     WCI  19
$$

NDZ018>021-031>035-040>046-210300-
SOUTHWEST NORTH DAKOTA

CITY           SKY/WX    TMP DP  RH WIND       PRES   REMARKS
BISMARCK       CLOUDY    31  30  96 W3        29.35S FOG
DICKINSON      FAIR      29  26  89 NW10      29.29F WCI  20
GARRISON         N/A     25  25 100 S3        29.34S
HETTINGER ARPT CLOUDY    30  26  85 NW7       29.32F
$$

NDZ004>008-012>016-024-026-027-054-210300-
NORTHEAST NORTH DAKOTA

CITY           SKY/WX    TMP DP  RH WIND       PRES   REMARKS
GRAND FORKS    CLOUDY    36  33  89 SE12      29.44F
GRND FRKS AFB  CLOUDY    34  32  93 SE10      29.44S
DEVILS LAKE    MIX PCPN  33  32  96 SE9       29.39F VSB 3/4
$$

NDZ022-023-025-028>030-036>039-047>053-210300-
SOUTHEAST NORTH DAKOTA

CITY           SKY/WX    TMP DP  RH WIND       PRES   REMARKS
FARGO          CLOUDY    39  35  86 SE12      29.44F
JAMESTOWN      CLOUDY    33  33 100 SE13      29.36S FOG
$$





USA.gov is the U.S. government's official web portal to all federal, state and local government web resources and services.